Tracking 19242 objects as of 16-Aug-2018
HD Live streaming from Space Station
objects crossing your sky now

CZ-2D DEB

Track CZ-2D DEB now!
10-day predictions


NORAD ID: 43038
Int'l Code: 2017-077E
Perigee: 452.0 km
Apogee: 508.6 km
Inclination: 97.3 °
Period: 94.1 minutes
Semi major axis: 6851 km
RCS: Unknown
Launch date: December 3, 2017
Source: People's Republic of China (PRC)
Launch site: Jiuquan Satellite Launch Center, China (JSC)

Note: This is SATELLITE DEBRIS
aabbcc
Your satellite tracking list
Your tracking list is empty




NASA's NSSDC Master Catalog

Two Line Element Set (TLE):
1 43038U 17077E   18227.92233103 +.00003526 +00000-0 +11769-3 0  9996
2 43038 097.3153 302.0732 0041313 105.7566 254.8237 15.30884914038978
Source of the keplerian elements: AFSPC